THORAD AGENA D DEB, 42509

Orbit data source: Space-Track

THORAD AGENA D DEB, 42509 is space debris in SSO originally from a launch on Wed, 08 Apr 1970 UTC launched from the Air Force Western Test Range (AFWTR). Debris objects in space refer to the collection of defunct objects orbiting the Earth. Examples of debris include non-operational satellites, rocket bodies, and fragments generated from explosions, collisions, or faulty payload assembly.

Loading next visibility...
Identifier
42509, 1970-025RP
Orbit
SSO
Country
Flag of USUS
Related business
Manufacturer
Unknown
Mission
Spacecraft
Bus & Motor
Unknown
Mass
Unknown
Launch date (UTC)
1970-04-08 (56 years ago)
Launch vehicle
Unknown
Launch site
Air Force Western Test Range (AFWTR)
Object type
Payload
Rocket body
Debris
Shape & HBR
Unknown shape, 0.1 m
Radar Cross Section
Small (<0.1 m²)

Expand to show TLE details & history
Last TLE update: 2 days ago

TLE from 2 days ago
0 THORAD AGENA D DEB
1 42509U 70025RP  25286.05400063  .00001097  00000-0  15813-2 0  9992
2 42509 100.0454  49.4780 0122068  41.9257 319.1148 13.55042778586430
Epoch: 2025-10-13T01:17Z
TLE epoch observation values (Epoch: 2025-10-13T01:17:45.654Z)
Latitude
0.00002°
Longitude
8.17548°
Altitude
988.426 km
Speed
7.391 km/s
True Right ascension
03h 17m 54s
True Declination
0° 00' 00"
Sunlit
Object was in full shadow at epoch
Visualization orbit readout
Latitude
Unknown
Longitude
Unknown
Altitude
Unknown
Speed
Unknown
Apparent Right ascension
Unknown
Apparent Declination
Unknown
Sunlit
N/A
Visualization observer readout
Local Sidereal Time
02:54:46
Azimuth
Unknown
Elevation
Unknown
Doppler factor
Unknown
Orbital elements
Apogee altitude
1,141.762 km
Perigee altitude
960.388 km
Semi-major axis
7,429.212 km
Eccentricity
0.01221
Inclination
100.0454°
RAAN
49.478°
Arg. of periapsis
41.9257°
True anomaly
318.18858°
Mean anomaly
319.1148°
Eccentric anomaly
318.65276°
Mean motion
3.38945 °/min
Orbital period
106.21 mins
BSTAR
0.0015813

Documentation

Showing up to 5 results
|